カタログに戻る

ICEYE-X64

運用中科学SSO
NORAD 67373·PAYLOAD·🇫🇮 Finland

打ち上げ Jan 11, 2026 から Vandenberg Space Force Base

Loading…

次のパス (今後24時間)

TLE

最新Source: Space-Track

元期: Sep 14, 2026, 10:12 UTC

1 67373U 26004L   26257.42523481  .00000613  00000-0  72541-4 0  9992
2 67373  97.8080 254.5996 0005486 188.3266 171.7861 14.88071902 36568

AllMySatでICEYE-X64をリアルタイム追跡

Download on the App Store